EW5042 Weather Reports


time (UTC)temp
F
wind
direction
speed
knots
gust
knots
rain 1hr
in
rain 24hr
in
rain mn
in
humidity
%
barometer
mb
20260504044541 57 301 0.0 3.5 0.00 0.00 0.00 86 1018.6
20260504043033 56 14 0.0 0.0 0.00 0.00 0.00 86 1018.5
20260504041529 55 14 0.0 0.0 0.00 0.00 0.00 86 1018.4
20260504040027 55 15 0.0 0.0 0.00 0.00 0.00 86 1018.4
20260504034537 55 15 0.0 0.0 0.00 0.00 0.00 86 1018.4
20260504033025 56 15 0.0 0.0 0.00 0.00 0.00 86 1018.4
20260504031526 55 20 0.0 0.9 0.00 0.00 0.00 86 1018.4
20260504030039 54 22 0.0 0.0 0.00 0.00 0.00 86 1018.4
20260504024524 52 23 0.0 0.0 0.00 0.00 0.00 85 1018.3
20260504023025 53 24 0.0 0.0 0.00 0.00 0.00 85 1018.4
20260504021522 53 24 0.0 0.0 0.00 0.00 0.00 85 1018.6
20260504020019 54 24 0.0 0.0 0.00 0.00 0.00 85 1018.5
20260504014532 54 24 0.0 0.0 0.00 0.00 0.00 86 1018.6
20260504013015 55 24 0.0 1.7 0.00 0.00 0.00 86 1018.6
20260504011514 55 23 0.0 0.0 0.00 0.00 0.00 87 1018.6
20260504010015 55 23 0.0 0.0 0.00 0.00 0.00 87 1018.6
20260504004512 55 30 0.0 2.6 0.00 0.00 0.00 87 1018.8
20260504003024 55 54 0.0 0.9 0.00 0.00 0.00 87 1018.8
20260504001511 55 57 0.0 0.0 0.00 0.00 0.00 87 1018.7
20260504000010 55 57 0.0 0.0 0.00 0.00 0.00 87 1018.8
20260503234525 55 59 0.0 0.0 0.00 0.00 0.00 86 1018.9
20260503233007 55 59 0.0 0.0 0.00 0.00 0.00 87 1019.1
20260503231505 55 59 0.0 0.9 0.00 0.00 0.00 86 1019.2
20260503230005 55 59 0.0 0.0 0.00 0.00 0.00 86 1019.3
20260503224503 55 59 0.0 1.7 0.00 0.00 0.00 86 1019.4
20260503223002 55 59 0.0 0.0 0.00 0.00 0.00 85 1019.5
20260503221503 56 59 0.0 0.0 0.00 0.00 0.00 85 1019.4
20260503220100 56 59 0.0 0.0 0.00 0.00 0.00 85 1019.3
20260503214600 56 59 0.0 0.9 0.00 0.00 0.00 85 1019.4
20260503213107 56 59 0.0 0.0 0.00 0.00 0.00 85 1019.5
20260503211556 56 59 0.0 0.0 0.00 0.00 0.00 84 1019.4
20260503210104 56 59 0.0 0.0 0.00 0.00 0.00 84 1019.6
20260503204605 56 59 0.0 0.0 0.00 0.00 0.00 84 1019.5
20260503203103 56 59 0.0 0.0 0.00 0.00 0.00 83 1019.3
20260503201554 56 59 0.0 0.0 0.00 0.00 0.00 83 1019.3
20260503200059 56 59 0.0 0.0 0.00 0.00 0.00 82 1019.4
20260503194553 57 59 0.0 0.0 0.00 0.00 0.00 82 1019.5
20260503193056 57 59 0.0 0.0 0.00 0.00 0.00 81 1019.6
20260503191603 58 59 0.0 0.0 0.00 0.00 0.00 80 1019.4
20260503190051 58 59 0.0 0.0 0.00 0.00 0.00 79 1019.2
20260503184557 58 59 0.0 0.0 0.00 0.00 0.00 79 1019.2
20260503183109 59 59 0.0 0.0 0.00 0.00 0.00 77 1019.0
20260503181549 60 59 0.0 0.0 0.00 0.00 0.00 75 1018.9
20260503180049 60 59 0.0 0.9 0.00 0.00 0.00 74 1018.8
20260503174547 61 62 0.0 0.0 0.00 0.00 0.00 73 1018.7
20260503173111 61 73 0.0 0.0 0.00 0.00 0.00 72 1018.7
20260503171549 62 74 0.0 2.6 0.00 0.00 0.00 72 1018.5
20260503100117 67 89 3.5 10.4 0.00 0.00 0.00 63 1019.8
20260503081507 66 59 2.6 7.0 0.00 0.00 0.00 59 1019.7
20260503071600 64 159 1.7 5.2 0.00 0.00 0.00 59 1019.8
20260503070104 64 98 0.0 6.1 0.00 0.00 0.00 59 1019.9
20260503054538 59 80 0.0 2.6 0.00 0.00 0.00 69 1019.7
20260503053036 57 39 0.0 1.7 0.00 0.00 0.00 70 1019.7